FW2905 Weather Reports


Display with metric or nautical units.
time (UTC)temp
F
wind
direction
speed
MPH
gust
MPH
rain 1hr
in
rain 24hr
in
rain mn
in
humidity
%
barometer
mb
20260905031019 70 0 0.0 2.0 0.00 1.92 1.89 94 1015.0
20260905030520 70 0 0.0 2.0 0.00 1.92 1.89 94 1015.1
20260905030037 70 65 0.0 2.0 0.00 1.92 1.89 94 1014.9
20260905025516 70 130 0.0 2.0 0.00 1.92 1.89 94 1014.9
20260905025019 70 0 1.0 2.0 0.00 1.92 1.89 94 1014.7
20260905024540 70 113 0.0 2.0 0.00 1.92 1.89 94 1014.7
20260905024018 70 37 0.0 2.0 0.00 1.92 1.89 94 1015.0
20260905023518 70 42 1.0 2.0 0.00 1.92 1.89 93 1014.9
20260905023039 70 0 0.0 2.0 0.00 1.92 1.89 93 1014.9
20260905022517 70 80 0.0 2.0 0.00 1.92 1.89 93 1014.9
20260905022021 70 118 1.0 4.0 0.00 1.92 1.89 93 1014.7
20260905021538 70 163 1.0 4.0 0.00 1.92 1.89 93 1014.9
20260905021018 70 157 1.0 2.0 0.00 1.92 1.89 93 1014.9
20260905020521 70 0 0.0 2.0 0.00 1.92 1.89 93 1015.2
20260905020040 70 0 0.0 2.0 0.00 1.92 1.89 93 1015.1
20260905015523 70 121 0.0 2.0 0.00 1.92 1.89 93 1015.2
20260905015020 70 141 1.0 2.0 0.00 1.92 1.89 92 1015.0
20260905014540 70 0 0.0 2.0 0.00 1.92 1.89 92 1015.2
20260905014021 70 0 0.0 2.0 0.00 1.92 1.89 92 1015.1
20260905013522 71 63 0.0 0.0 0.00 1.92 1.89 92 1015.2
20260905013105 71 0 0.0 0.0 0.00 1.92 1.89 91 1015.1
20260905012517 71 0 0.0 0.0 0.00 1.92 1.89 91 1015.0
20260905012017 71 0 0.0 0.0 0.00 1.92 1.89 91 1015.0
20260905011540 71 0 0.0 0.0 0.00 1.92 1.89 90 1015.0
20260905011024 72 0 0.0 2.0 0.00 1.92 1.89 91 1014.8
20260905010519 71 0 0.0 2.0 0.00 1.92 1.89 90 1014.7
20260905010045 72 60 0.0 2.0 0.00 1.92 1.89 90 1014.5
20260905005519 72 76 0.0 2.0 0.00 1.92 1.89 90 1014.4
20260905005019 72 0 0.0 2.0 0.00 1.92 1.89 89 1014.3
20260905004556 72 0 0.0 2.0 0.00 1.92 1.89 89 1014.2
20260905004019 72 85 0.0 2.0 0.00 1.92 1.89 89 1014.3
20260905003521 72 61 1.0 2.0 0.00 1.92 1.89 89 1014.3
20260905003043 72 40 1.0 2.0 0.00 1.92 1.89 88 1014.4
20260905002519 73 71 0.0 2.0 0.00 1.92 1.89 88 1014.4
20260905002022 73 62 1.0 2.0 0.00 1.92 1.89 88 1014.5
20260905001546 73 45 1.0 2.0 0.00 1.92 1.89 87 1014.6
20260905001022 73 79 0.0 2.0 0.00 1.92 1.89 87 1014.4
20260905000523 73 54 0.0 2.0 0.00 1.92 1.89 87 1014.4
20260905000048 73 59 1.0 2.0 0.00 1.92 1.89 87 1014.4
20260904235520 73 49 1.0 2.0 0.00 1.92 1.89 87 1014.4
20260904235019 74 46 0.0 2.0 0.00 1.92 1.89 86 1014.4
20260904234542 73 51 1.0 4.0 0.00 1.92 1.89 86 1014.4
20260904234017 74 53 1.0 4.0 0.00 1.92 1.89 86 1014.2
20260904233520 74 144 1.0 4.0 0.00 1.92 1.89 86 1014.2
20260904233042 74 98 2.0 4.0 0.00 1.92 1.89 85 1013.9
20260904232521 74 107 1.0 5.0 0.00 1.92 1.89 86 1013.8
20260904232016 75 54 1.0 5.0 0.00 1.92 1.89 85 1013.7
20260904231542 75 71 1.0 5.0 0.00 1.92 1.89 85 1013.8
20260904231023 75 79 1.0 4.0 0.00 1.92 1.89 85 1013.9
20260904230525 75 119 1.0 4.0 0.00 1.92 1.89 85 1014.0
20260904230038 76 122 1.0 4.0 0.00 1.92 1.89 84 1014.0
20260904225518 76 107 2.0 4.0 0.00 1.92 1.89 84 1014.0
20260904225020 76 61 2.0 3.0 0.00 1.92 1.89 84 1013.8
20260904224537 76 117 1.0 6.0 0.00 1.92 1.89 84 1013.9
20260904224021 76 122 1.0 6.0 0.00 1.92 1.89 84 1013.9
20260904223521 77 133 2.0 4.0 0.00 1.92 1.89 83 1013.7
20260904223036 77 130 2.0 5.0 0.00 1.92 1.89 83 1013.8
20260904222516 77 75 1.0 5.0 0.00 1.92 1.89 83 1013.7
20260904222019 77 98 1.0 4.0 0.00 1.92 1.89 83 1013.7
20260904221535 77 111 1.0 4.0 0.00 1.92 1.89 82 1013.6
20260904221019 78 138 2.0 4.0 0.00 1.92 1.89 81 1013.6
20260904220516 79 152 1.0 4.0 0.00 1.92 1.89 81 1013.5
20260904220040 79 86 2.0 6.0 0.00 1.92 1.89 78 1013.6
20260904215517 80 101 2.0 6.0 0.00 1.92 1.89 78 1013.6
20260904215018 81 136 2.0 4.0 0.00 1.92 1.89 78 1013.6
20260904214539 81 105 1.0 4.0 0.00 1.92 1.89 77 1013.7
20260904214023 83 0 1.0 4.0 0.00 1.92 1.89 75 1013.6
20260904213522 84 293 2.0 4.0 0.00 1.92 1.89 71 1013.6
20260904213042 83 146 1.0 2.0 0.00 1.92 1.89 70 1013.5
20260904212518 84 5 1.0 2.0 0.00 1.92 1.89 72 1013.5
20260904212021 84 22 1.0 2.0 0.00 1.92 1.89 70 1013.4
20260904211542 85 53 1.0 3.0 0.00 1.92 1.89 70 1013.4
20260904211021 83 0 0.0 3.0 0.00 1.92 1.89 71 1013.4
20260904210521 83 243 1.0 3.0 0.00 1.92 1.89 71 1013.5
20260904210038 82 287 2.0 3.0 0.00 1.92 1.89 71 1013.5
20260904205521 82 247 1.0 2.0 0.00 1.92 1.89 72 1013.5
20260904205020 82 295 1.0 3.0 0.00 1.92 1.89 72 1013.4
20260904204540 82 261 2.0 4.0 0.00 1.92 1.89 72 1013.4
20260904204018 82 244 1.0 4.0 0.00 1.92 1.89 71 1013.4
20260904203519 82 297 2.0 5.0 0.00 1.92 1.89 71 1013.3
20260904203038 82 313 1.0 8.0 0.00 1.92 1.89 73 1013.4
20260904202525 81 311 2.0 8.0 0.00 1.92 1.89 74 1013.4
20260904202020 82 313 3.0 8.0 0.00 1.92 1.89 73 1013.5
20260904201538 82 222 3.0 4.0 0.00 1.92 1.89 72 1013.5
20260904201022 82 248 2.0 6.0 0.00 1.92 1.89 73 1013.5
20260904200520 82 312 2.0 9.0 0.00 1.92 1.89 72 1013.4
20260904200040 82 282 4.0 10.0 0.00 1.92 1.89 71 1013.4
20260904195524 82 263 5.0 10.0 0.00 1.92 1.89 71 1013.6
20260904195018 83 280 4.0 7.0 0.00 1.92 1.89 71 1013.5
20260904194541 83 180 1.0 6.0 0.00 1.92 1.89 73 1013.5
20260904194016 82 180 1.0 7.0 0.00 1.92 1.89 74 1013.5
20260904193516 81 208 4.0 7.0 0.00 1.92 1.89 76 1013.6
20260904193039 81 250 3.0 8.0 0.00 1.92 1.89 75 1013.7
20260904192521 81 284 3.0 8.0 0.00 1.92 1.89 76 1013.6
20260904192024 81 213 2.0 7.0 0.00 1.92 1.89 76 1013.6
20260904191538 81 270 3.0 9.0 0.00 1.92 1.89 75 1013.6
20260904191023 81 246 3.0 9.0 0.00 1.92 1.89 76 1013.6
20260904190522 81 250 2.0 12.0 0.00 1.92 1.89 76 1013.7
20260904190035 80 243 6.0 12.0 0.00 1.92 1.89 76 1013.9
20260904185516 80 235 5.0 13.0 0.00 1.92 1.89 76 1013.7
20260904185019 80 284 4.0 13.0 0.00 1.92 1.89 78 1013.8
20260904184541 79 209 5.0 14.0 0.00 1.92 1.89 79 1013.8
20260904184018 79 286 6.0 14.0 0.00 1.92 1.89 79 1013.8
20260904183518 78 189 5.0 12.0 0.00 1.92 1.89 81 1014.0
20260904183040 78 234 4.0 11.0 0.00 1.92 1.89 82 1014.1
20260904182520 77 203 6.0 11.0 0.00 1.92 1.89 82 1014.0
20260904182024 77 271 5.0 11.0 0.00 1.92 1.89 83 1014.0
20260904181539 76 227 4.0 13.0 0.00 1.92 1.89 83 1014.0
20260904181023 76 279 7.0 13.0 0.00 1.92 1.89 84 1014.2
20260904180526 76 193 4.0 13.0 0.00 1.92 1.89 85 1014.2
20260904180050 75 211 6.0 13.0 0.00 1.92 1.89 86 1014.1
20260904175518 75 269 4.0 10.0 0.00 1.92 1.89 85 1014.1
20260904175019 75 267 5.0 10.0 0.00 1.92 1.89 87 1013.9
20260904174543 74 250 6.0 9.0 0.00 1.92 1.89 88 1013.9
20260904174021 73 225 3.0 7.0 0.00 1.92 1.89 87 1013.6
20260904173517 73 218 3.0 8.0 0.00 1.92 1.89 89 1013.8
20260904173041 73 290 3.0 8.0 0.00 1.92 1.89 91 1014.0
20260904172519 72 247 4.0 9.0 0.00 1.92 1.89 90 1014.0
20260904172019 72 215 2.0 8.0 0.00 1.92 1.89 91 1014.1
20260904171605 71 220 4.0 8.0 0.00 1.92 1.89 92 1014.2
20260904171019 71 247 2.0 8.0 0.00 1.92 1.89 94 1014.3
20260904170519 70 221 2.0 8.0 0.00 1.92 1.89 94 1014.3
20260904170041 70 247 4.0 8.0 0.00 1.92 1.89 93 1014.2
20260904165524 69 176 2.0 5.0 0.00 1.93 1.89 94 1014.2
20260904165020 69 216 2.0 5.0 0.00 1.93 1.89 94 1014.5
20260904164539 69 195 2.0 5.0 0.00 1.93 1.89 95 1014.6
20260904164019 68 188 2.0 5.0 0.00 1.93 1.89 95 1014.6
20260904163520 68 188 2.0 6.0 0.00 1.93 1.89 95 1014.8
20260904163038 68 196 1.0 6.0 0.00 1.93 1.89 95 1014.9
20260904162519 67 235 3.0 6.0 0.00 1.93 1.89 95 1014.9
20260904162021 67 269 2.0 4.0 0.00 1.93 1.89 95 1014.8
20260904161551 67 206 1.0 4.0 0.00 1.93 1.89 95 1014.6
20260904161016 67 155 2.0 4.0 0.00 1.93 1.89 95 1014.5
20260904160516 67 166 1.0 4.0 0.00 1.93 1.89 95 1014.6
20260904160041 67 164 1.0 4.0 0.00 1.93 1.89 95 1014.9
20260904155528 67 157 2.0 5.0 0.00 1.93 1.89 95 1015.0
20260904155021 67 156 2.0 5.0 0.00 1.93 1.89 95 1014.9
20260904154543 67 188 1.0 3.0 0.00 1.93 1.89 95 1015.2
20260904154025 67 212 2.0 4.0 0.00 1.93 1.89 95 1015.6
20260904153522 67 188 1.0 5.0 0.00 1.93 1.89 95 1015.8
20260904153050 67 240 1.0 7.0 0.01 1.93 1.89 95 1015.5
20260904152519 67 213 2.0 7.0 0.01 1.93 1.89 95 1015.4
20260904152017 67 193 2.0 7.0 0.01 1.93 1.89 95 1015.3
20260904151535 67 150 3.0 6.0 0.01 1.93 1.89 95 1015.1
20260904151018 67 159 2.0 4.0 0.02 1.93 1.89 95 1015.1
20260904150518 67 231 1.0 4.0 0.02 1.93 1.89 94 1015.5
20260904150039 67 123 1.0 9.0 0.02 1.93 1.89 94 1015.2
20260904145518 67 169 3.0 9.0 0.03 1.95 1.89 94 1015.2
20260904145022 67 170 5.0 8.0 0.03 1.95 1.89 94 1015.3
20260904144537 66 139 2.0 10.0 0.03 1.95 1.89 94 1015.5
20260904144024 66 154 3.0 12.0 0.04 1.95 1.89 94 1015.2
20260904143520 66 139 6.0 12.0 0.05 1.95 1.89 94 1015.3
20260904143036 66 199 5.0 14.0 0.05 1.94 1.88 94 1015.7
20260904142519 66 155 7.0 14.0 0.07 1.94 1.88 94 1015.7
20260904142019 66 161 6.0 14.0 0.14 1.94 1.88 94 1016.0
20260904141538 66 183 3.0 9.0 0.19 1.94 1.88 94 1016.3
20260904141019 66 160 2.0 8.0 0.19 1.93 1.87 94 1016.6
20260904140516 66 153 5.0 9.0 0.20 1.93 1.87 94 1016.3
20260904140040 66 168 5.0 15.0 0.29 1.93 1.87 94 1016.2
20260904135527 66 155 5.0 16.0 0.43 1.93 1.86 94 1016.1
20260904135019 66 163 7.0 16.0 0.56 1.93 1.86 94 1015.9
20260904134549 66 159 7.0 15.0 0.79 1.92 1.85 94 1015.9
20260904134020 66 171 6.0 10.0 0.94 1.92 1.85 94 1015.8
20260904133518 66 180 6.0 10.0 0.93 1.91 1.84 94 1016.2
20260904133055 66 163 1.0 10.0 0.92 1.90 1.83 94 1017.4
20260904132523 66 162 4.0 10.0 0.89 1.86 1.79 94 1017.1
20260904132021 66 149 5.0 10.0 0.82 1.79 1.72 94 1016.8
20260904131538 66 139 5.0 8.0 0.78 1.75 1.68 94 1017.2
20260904131019 66 133 2.0 9.0 0.78 1.75 1.68 94 1017.1
20260904130522 66 145 5.0 10.0 0.76 1.73 1.66 94 1016.8
20260904130042 66 95 4.0 10.0 0.67 1.64 1.57 93 1017.5
20260904125519 66 159 3.0 11.0 0.50 1.47 1.40 93 1017.7
20260904125019 67 71 4.0 18.0 0.39 1.36 1.29 93 1017.8
20260904124542 67 313 8.0 18.0 0.12 1.09 1.02 93 1017.9
20260904124017 67 341 8.0 18.0 0.01 0.98 0.91 93 1017.3
20260904123522 67 16 3.0 14.0 0.01 0.98 0.91 93 1016.1
20260904123038 67 89 4.0 9.0 0.01 0.98 0.91 93 1015.8
20260904122523 67 71 6.0 9.0 0.00 0.97 0.90 93 1016.8
20260904122019 67 32 2.0 11.0 0.00 0.97 0.90 93 1016.3
20260904121542 67 144 3.0 11.0 0.00 0.97 0.90 93 1015.4
20260904121017 67 148 5.0 16.0 0.00 0.97 0.90 93 1015.4
20260904120519 67 82 3.0 16.0 0.00 0.97 0.90 92 1015.4
20260904120054 67 9 5.0 16.0 0.00 0.97 0.90 92 1015.3
20260904115521 67 170 4.0 12.0 0.00 0.97 0.90 92 1015.8
20260904115024 67 58 2.0 9.0 0.00 0.97 0.90 92 1016.0
20260904114538 67 113 4.0 14.0 0.00 0.97 0.90 92 1015.7
20260904114021 67 105 7.0 14.0 0.00 0.97 0.90 92 1016.2
20260904113522 67 39 7.0 14.0 0.00 0.97 0.90 92 1016.0
20260904113041 67 88 4.0 14.0 0.00 0.97 0.90 93 1016.1
20260904112523 67 93 5.0 14.0 0.00 0.97 0.90 93 1015.8
20260904112021 66 23 4.0 12.0 0.00 0.97 0.90 94 1015.5
20260904111537 66 71 3.0 13.0 0.00 0.97 0.90 94 1015.3
20260904111018 66 80 4.0 13.0 0.00 0.97 0.90 94 1015.3
20260904110520 66 56 5.0 14.0 0.06 0.97 0.90 94 1015.5
20260904110042 66 98 6.0 17.0 0.08 0.97 0.90 94 1015.7
20260904105521 66 74 5.0 17.0 0.08 0.97 0.90 94 1015.7
20260904105023 66 62 6.0 17.0 0.09 0.97 0.90 94 1015.8
20260904104617 66 67 5.0 10.0 0.16 0.97 0.90 94 1015.4
20260904104028 66 67 3.0 8.0 0.39 0.97 0.90 93 1015.0
20260904103523 66 51 4.0 10.0 0.41 0.97 0.90 93 1014.7
20260904103038 66 129 3.0 10.0 0.41 0.97 0.90 93 1014.5
20260904102524 66 38 2.0 6.0 0.41 0.97 0.90 93 1014.5
20260904102025 66 158 1.0 10.0 0.41 0.97 0.90 93 1014.2
20260904101546 66 0 3.0 10.0 0.41 0.97 0.90 93 1014.3
20260904101019 66 127 4.0 10.0 0.44 0.97 0.90 93 1014.2
20260904100517 67 65 2.0 10.0 0.46 0.90 0.83 94 1014.6
20260904100056 67 188 4.0 15.0 0.47 0.89 0.82 94 1014.0
20260904095521 67 60 5.0 15.0 0.47 0.89 0.82 94 1013.8
20260904095020 67 181 5.0 12.0 0.45 0.87 0.80 93 1014.1
20260904094551 67 78 6.0 12.0 0.37 0.79 0.72 93 1014.7
20260904094019 67 94 2.0 12.0 0.16 0.58 0.51 93 1015.2
20260904093527 67 219 4.0 12.0 0.14 0.56 0.49 93 1014.4
20260904093038 67 111 6.0 12.0 0.14 0.56 0.49 93 1014.6
20260904092520 68 92 6.0 14.0 0.14 0.56 0.49 93 1014.7
20260904092019 68 78 6.0 14.0 0.15 0.56 0.49 93 1015.2
20260904091539 68 133 4.0 11.0 0.16 0.56 0.49 93 1014.8
20260904091019 69 109 4.0 10.0 0.13 0.52 0.46 92 1014.6
20260904090526 69 19 2.0 11.0 0.04 0.44 0.37 92 1015.0
20260904090042 69 57 5.0 13.0 0.02 0.42 0.35 91 1014.5
20260904085520 69 46 9.0 16.0 0.02 0.42 0.35 91 1014.4
20260904085022 69 40 8.0 20.0 0.02 0.42 0.35 90 1015.0
20260904084540 69 23 11.0 20.0 0.02 0.42 0.35 91 1014.5
20260904084019 69 56 8.0 18.0 0.02 0.42 0.35 91 1014.5
20260904083518 69 343 5.0 19.0 0.02 0.42 0.35 90 1015.7
20260904083048 70 335 9.0 19.0 0.02 0.42 0.35 90 1015.6
20260904082521 70 38 7.0 18.0 0.02 0.42 0.35 91 1015.6
20260904082020 70 344 10.0 18.0 0.01 0.41 0.34 93 1015.6
20260904081544 71 44 7.0 15.0 0.00 0.40 0.33 94 1015.0
20260904081020 71 172 4.0 8.0 0.00 0.40 0.33 94 1013.5
20260904080522 70 179 4.0 7.0 0.00 0.40 0.33 94 1012.9
20260904080042 70 184 3.0 6.0 0.00 0.40 0.33 94 1013.0
20260904075517 70 148 1.0 9.0 0.00 0.40 0.33 94 1013.4
20260904075023 70 174 1.0 9.0 0.00 0.40 0.33 94 1013.4
20260904074541 70 146 4.0 9.0 0.00 0.40 0.33 94 1013.4
20260904074027 70 146 1.0 9.0 0.00 0.40 0.33 94 1013.6
20260904073519 70 136 0.0 9.0 0.00 0.40 0.33 94 1013.7
20260904073037 70 97 3.0 6.0 0.00 0.40 0.33 93 1013.5
20260904072522 70 109 1.0 8.0 0.00 0.40 0.33 93 1013.8
20260904072019 70 112 2.0 8.0 0.01 0.40 0.33 93 1014.2
20260904071540 70 117 3.0 14.0 0.05 0.40 0.33 93 1013.9
20260904071021 70 47 4.0 14.0 0.09 0.40 0.33 93 1014.2
20260904070521 70 352 9.0 13.0 0.16 0.40 0.33 93 1014.6
20260904070042 70 317 6.0 10.0 0.18 0.40 0.33 93 1014.4
20260904065524 70 26 2.0 5.0 0.19 0.40 0.33 93 1014.0
20260904065016 70 137 0.0 2.0 0.20 0.40 0.33 92 1013.9
20260904064536 70 136 1.0 2.0 0.21 0.40 0.33 92 1013.9
20260904064020 71 168 1.0 10.0 0.22 0.40 0.33 92 1013.6
20260904063519 71 146 2.0 10.0 0.25 0.40 0.33 93 1013.2
20260904063046 70 174 3.0 14.0 0.29 0.40 0.33 93 1013.5
20260904062519 70 123 5.0 14.0 0.29 0.40 0.33 93 1013.4
20260904062018 70 190 3.0 8.0 0.29 0.39 0.32 94 1014.2
20260904061539 69 76 3.0 8.0 0.25 0.34 0.27 94 1014.6
20260904061022 70 169 3.0 6.0 0.21 0.29 0.22 94 1014.9
20260904060522 70 134 0.0 6.0 0.16 0.23 0.16 94 1014.9
20260904060108 70 0 2.0 6.0 0.14 0.21 0.14 94 1015.0
20260904055518 70 134 2.0 6.0 0.15 0.21 0.14 94 1014.9
20260904055016 69 0 1.0 6.0 0.15 0.20 0.13 94 1015.0
20260904054538 69 274 3.0 6.0 0.14 0.19 0.12 94 1015.5
20260904054019 69 249 3.0 6.0 0.14 0.18 0.11 94 1015.3
20260904053522 69 169 3.0 11.0 0.08 0.12 0.05 94 1014.9
20260904053131 69 223 4.0 11.0 0.07 0.11 0.04 94 1015.2
20260904052516 69 318 5.0 8.0 0.07 0.11 0.04 94 1015.8
20260904052022 69 294 2.0 4.0 0.06 0.10 0.03 94 1015.6
20260904051601 69 150 1.0 5.0 0.05 0.09 0.02 93 1015.2
20260904051024 69 150 3.0 7.0 0.04 0.08 0.01 93 1014.9
20260904050523 70 49 2.0 8.0 0.03 0.07 0.00 93 1015.8
20260904050039 70 80 3.0 8.0 0.03 0.07 0.00 93 1015.5
20260904045519 70 320 4.0 8.0 0.02 0.06 0.06 93 1016.2
20260904045018 70 348 0.0 5.0 0.01 0.05 0.05 92 1016.2
20260904044549 70 39 3.0 8.0 0.01 0.05 0.05 92 1015.8
20260904044021 70 51 3.0 8.0 0.00 0.04 0.04 92 1015.7
20260904043521 70 72 4.0 8.0 0.00 0.04 0.04 92 1015.8
20260904043039 70 26 3.0 6.0 0.00 0.04 0.04 92 1016.0
20260904042520 70 63 1.0 5.0 0.00 0.04 0.04 92 1015.2
20260904042020 70 150 2.0 5.0 0.00 0.04 0.04 91 1015.3
20260904041536 70 161 1.0 4.0 0.00 0.04 0.04 91 1015.2
20260904041019 70 149 2.0 3.0 0.00 0.04 0.04 91 1015.2
20260904040518 70 103 0.0 3.0 0.00 0.04 0.04 90 1015.3
20260904040047 70 194 1.0 3.0 0.00 0.04 0.04 90 1015.6
20260904035517 70 113 1.0 3.0 0.00 0.04 0.04 90 1015.3
20260904035020 70 175 1.0 4.0 0.00 0.04 0.04 91 1015.7
20260904034538 70 139 1.0 4.0 0.00 0.04 0.04 91 1015.5
20260904034021 69 169 2.0 4.0 0.00 0.04 0.04 92 1015.4
20260904033520 69 130 0.0 2.0 0.00 0.04 0.04 92 1015.2
20260904033049 69 0 0.0 2.0 0.00 0.04 0.04 92 1015.3
20260904032520 69 0 0.0 2.0 0.00 0.04 0.04 92 1015.2
20260904032016 69 0 0.0 2.0 0.00 0.04 0.04 92 1015.3
20260904031535 69 123 0.0 2.0 0.00 0.04 0.04 92 1015.3